Toronto, Ontario

10:06 AM EDT on April 25, 2018 (GMT -0400)
Toronto

Weather History for CYTZ - October, 2012

Change the Weather History Date:

Tuesday, October 9, 2012

  Actual Average Record
Temperature  
Mean Temperature 50 °F -  
Max Temperature 57 °F 53 °F 73 °F (2011)
Min Temperature 42 °F 41 °F 35 °F (2000)
Degree Days  
Heating Degree Days 16    
Moisture  
Dew Point 42 °F    
Average Humidity 67    
Maximum Humidity 82    
Minimum Humidity 46    
Precipitation  
Precipitation 0.00 in 0.08 in - ()
Sea Level Pressure  
Sea Level Pressure 30.10 in    
Wind  
Wind Speed 8 mph ()    
Max Wind Speed 14 mph    
Max Gust Speed 20 mph    
Visibility 9.1 miles    
Events      
Averages and records for this station are not official NWS values.
T = Trace of Precipitation, MM = Missing Value Source: Averaged Metar Reports

Daily Weather History Graph

Daily Weather History Graph

Search for Another Location

Airport or City:

Astronomy

Oct. 09, 2012 Rise Set
Actual Time 7:25 AM EDT 6:43 PM EDT
Civil Twilight 6:56 AM EDT 7:12 PM EDT
Nautical Twilight 6:23 AM EDT 7:45 PM EDT
Astronomical Twilight 5:49 AM EDT 8:18 PM EDT
Moon 12:49 AM EDT (10/9) 3:19 PM EDT (10/9)
Length of Visible Light 12h 15m
Length of Day
11h 18m
Last Quarter, 37% of the Moon is Illuminated
Oct 9
Last Quarter
Oct 15
New
Oct 21
First Quarter
Oct 29
Full
Nov 6
Last Quarter

Hourly Weather History & Observations

Time (EDT) Temp. Dew Point Humidity Pressure Visibility Wind Dir Wind Speed Gust Speed Precip Events Conditions
12:00 AM 44.6 °F 39.2 °F 81% 30.21 in 9.0 mi Calm Calm - N/A   Clear
2:00 AM 47 °F 39 °F 66% 30.18 in 10 mi South 8.1 mph - -  
2:00 AM 48.2 °F 39.2 °F 71% 30.18 in 9.0 mi South 8.1 mph - N/A   Clear
3:00 AM 50.0 °F 41.0 °F 71% 30.17 in 9.0 mi South 8.1 mph - N/A   Mostly Cloudy
4:00 AM 50.0 °F 41.0 °F 71% 30.16 in 9.0 mi South 9.2 mph - N/A   Mostly Cloudy
5:00 AM 50.0 °F 41.0 °F 71% 30.16 in 9.0 mi SSW 10.4 mph - N/A   Scattered Clouds
6:00 AM 50.0 °F 41.0 °F 71% 30.15 in 9.0 mi South 9.2 mph - N/A   Scattered Clouds
7:00 AM 51.8 °F 41.0 °F 67% 30.16 in 9.0 mi South 13.8 mph - N/A   Overcast
8:00 AM 50 °F 44 °F 73% 30.17 in 10 mi South 11.5 mph - -   Overcast
8:00 AM 50.0 °F 44.6 °F 82% 30.17 in 9.0 mi SSE 12.7 mph - N/A   Overcast
9:00 AM 51.8 °F 42.8 °F 71% 30.17 in 9.0 mi South 11.5 mph - N/A   Overcast
10:00 AM 53.6 °F 42.8 °F 67% 30.16 in 9.0 mi South 13.8 mph - N/A   Overcast
11:00 AM 53.6 °F 42.8 °F 67% 30.15 in 9.0 mi South 12.7 mph - N/A   Overcast
12:00 PM 55.4 °F 42.8 °F 63% 30.14 in 9.0 mi South 13.8 mph 19.6 mph N/A   Mostly Cloudy
1:00 PM 55.4 °F 41.0 °F 58% 30.12 in 9.0 mi South 12.7 mph 19.6 mph N/A   Clear
2:00 PM 57 °F 42 °F 46% 30.09 in 10 mi South 13.8 mph - -  
2:00 PM 57.2 °F 41.0 °F 55% 30.09 in 9.0 mi South 12.7 mph - N/A   Clear
3:00 PM 57.2 °F 41.0 °F 55% 30.07 in 9.0 mi SSE 13.8 mph - N/A   Clear
4:00 PM 57.2 °F 41.0 °F 55% 30.05 in 9.0 mi South 10.4 mph - N/A   Clear
5:00 PM 55.4 °F 42.8 °F 63% 30.04 in 9.0 mi South 8.1 mph - N/A   Clear
6:00 PM 53.6 °F 42.8 °F 67% 30.02 in 9.0 mi South 6.9 mph - N/A   Clear
7:00 PM 53.6 °F 42.8 °F 67% 30.01 in 9.0 mi SSW 8.1 mph - N/A   Overcast
8:00 PM 52 °F 42 °F 60% 30.00 in 10 mi South 5.8 mph - -  
8:00 PM 51.8 °F 42.8 °F 71% 30.00 in 9.0 mi South 5.8 mph - N/A   Partly Cloudy
9:00 PM 51.8 °F 44.6 °F 76% 29.98 in 9.0 mi SSW 5.8 mph - N/A   Clear
10:00 PM 51.8 °F 44.6 °F 76% 29.97 in 9.0 mi South 8.1 mph - N/A   Partly Cloudy
11:00 PM 51.8 °F 44.6 °F 76% 29.95 in 9.0 mi SSE 5.8 mph - N/A   Clear